Location: Handeloh
(53.2500°N, 9.8330°E)
Time: 09:04:03
(UTC+01:00)

S-56A Canister/Altair - Pass Details

Date: 23 November 2019
Orbit: 633 x 2499 km, 38.9° (Epoch: 07 December)

Event Time Altitude Azimuth Distance (km) Brightness Sun altitude
Rises 18:18:20 0° 251° (WSW) 5,200 13.4 -17.9°
Reaches altitude 10° 18:22:42 10° 241° (WSW) 3,876 12.2 -18.5°
Maximum altitude 18:30:24 28° 188° (S) 2,151 9.9 -19.6°
Enters shadow 18:35:07 14° 137° (SE) 2,544 9.8 -20.3°
Drops below altitude 10° 18:36:01 10° 131° (SE) 2,757 - -20.5°
Sets 18:38:35 0° 120° (ESE) 3,495 - -20.9°
